Imperial, NE

1:29 PM MDT on June 25, 2017 (GMT -0600)
Imperial Municipal

Weather History for KIML - February, 2014

Change the Weather History Date:

Wednesday, February 26, 2014

  Actual Average Record
Temperature  
Mean Temperature 9 °F 34 °F  
Max Temperature 31 °F 48 °F 75 °F (1995)
Min Temperature -13 °F 21 °F -14 °F (1960)
Degree Days  
Heating Degree Days 56 31  
Month to date heating degree days 1109 877  
Cooling Degree Days 0 0  
Month to date cooling degree days 0 0  
Year to date cooling degree days 0 0  
Moisture  
Dew Point 1 °F    
Average Humidity 72    
Maximum Humidity 91    
Minimum Humidity 53    
Precipitation  
Precipitation 0.00 in 0.02 in 0.60 in (1900)
Sea Level Pressure  
Sea Level Pressure 30.27 in    
Wind  
Wind Speed 8 mph (West)    
Max Wind Speed 15 mph    
Max Gust Speed 36 mph    
Visibility 8 miles    
Events Fog    
T = Trace of Precipitation, MM = Missing Value Source: NWS Daily Summary

Daily Weather History Graph

Daily Weather History Graph

Search for Another Location

Airport or City:

Trip Planner

Search our weather history database for the weather conditions in past years. The results will help you decide how hot, cold, wet, or windy it might be!

Date:

Astronomy

Feb. 26, 2014 Rise Set
Actual Time 6:24 AM MST 5:34 PM MST
Civil Twilight 5:57 AM MST 6:02 PM MST
Nautical Twilight 5:25 AM MST 6:33 PM MST
Astronomical Twilight 4:54 AM MST 7:05 PM MST
Moon 4:12 AM MST (2/26) 2:51 PM MST (2/26)
Length of Visible Light 12h 04m
Length of Day
11h 09m
Waning Crescent, 9% of the Moon is Illuminated
Feb 26
Waning Crescent
Mar 1
New
Mar 8
First Quarter
Mar 16
Full
Mar 23
Last Quarter

Hourly Weather History & Observations

Time (MST) Temp. Windchill Dew Point Humidity Pressure Visibility Wind Dir Wind Speed Gust Speed Precip Events Conditions
12:35 AM 1.4 °F -9.9 °F -2.2 °F 85% 30.34 in 10.0 mi WSW 5.8 mph - N/A   Scattered Clouds
12:44 AM -2.2 °F -14.2 °F -5.8 °F 85% 30.33 in 10.0 mi SW 5.8 mph - N/A   Scattered Clouds
12:47 AM -2.2 °F -15.6 °F -5.8 °F 85% 30.33 in 2.5 mi WSW 6.9 mph - N/A   Mostly Cloudy
12:53 AM -2.9 °F -17.7 °F -6.0 °F 87% 30.55 in 0.8 mi WSW 8.1 mph - N/A   Mist
1:08 AM -2.2 °F -16.8 °F -5.8 °F 85% 30.31 in 0.5 mi WSW 8.1 mph - N/A Fog Light Freezing Fog
1:53 AM -4.0 °F -19.0 °F -9.0 °F 79% 30.48 in 0.8 mi SW 8.1 mph - N/A   Haze
2:05 AM -2.2 °F -15.6 °F -7.6 °F 78% 30.24 in 1.2 mi SW 6.9 mph - N/A   Overcast
2:22 AM -5.8 °F -19.9 °F -9.4 °F 84% 30.23 in 3.0 mi WSW 6.9 mph - N/A   Mostly Cloudy
2:33 AM -5.8 °F -21.2 °F -9.4 °F 84% 30.22 in 9.0 mi WSW 8.1 mph - N/A   Scattered Clouds
2:53 AM -6.0 °F -21.5 °F -11.0 °F 79% 30.43 in 10.0 mi WSW 8.1 mph - N/A   Clear
3:53 AM -5.1 °F -21.5 °F -9.9 °F 80% 30.39 in 10.0 mi WSW 9.2 mph - N/A   Clear
4:53 AM -6.0 °F -14.7 °F -11.9 °F 75% 30.38 in 10.0 mi NW 3.5 mph - N/A   Clear
5:53 AM -9.9 °F -24.9 °F -15.0 °F 78% 30.38 in 10.0 mi WSW 6.9 mph - N/A   Clear
6:53 AM -4.0 °F - -9.0 °F 79% 30.35 in 4.0 mi Calm Calm - N/A   Haze
7:53 AM -2.0 °F -10.1 °F -6.0 °F 83% 30.34 in 8.0 mi West 3.5 mph - N/A   Clear
8:53 AM 3.9 °F -6.9 °F -2.0 °F 76% 30.31 in 10.0 mi WSW 5.8 mph - N/A   Clear
9:53 AM 8.1 °F -2.0 °F 1.9 °F 76% 30.30 in 10.0 mi West 5.8 mph - N/A   Clear
10:53 AM 12.9 °F 1.6 °F 7.0 °F 77% 30.26 in 10.0 mi WSW 8.1 mph - N/A   Clear
11:53 AM 23.0 °F 13.1 °F 12.0 °F 63% 30.21 in 10.0 mi West 9.2 mph - N/A   Clear
12:53 PM 27.0 °F 16.1 °F 12.9 °F 56% 30.18 in 10.0 mi WNW 12.7 mph - N/A   Clear
1:53 PM 28.9 °F 18.2 °F 14.0 °F 54% 30.16 in 10.0 mi WNW 13.8 mph - N/A   Clear
2:53 PM 28.9 °F 18.6 °F 15.1 °F 56% 30.15 in 10.0 mi West 12.7 mph - N/A   Clear
3:53 PM 30.0 °F 20.5 °F 16.0 °F 56% 30.14 in 10.0 mi WNW 11.5 mph - N/A   Clear
4:53 PM 28.9 °F 18.2 °F 15.1 °F 56% 30.14 in 10.0 mi West 13.8 mph - N/A   Clear
5:53 PM 24.1 °F 16.0 °F 12.9 °F 62% 30.16 in 10.0 mi West 6.9 mph - N/A   Clear
6:53 PM 21.0 °F 10.6 °F 12.9 °F 71% 30.16 in 10.0 mi West 9.2 mph - N/A   Clear
7:53 PM 19.0 °F 10.0 °F 12.9 °F 77% 30.17 in 10.0 mi West 6.9 mph - N/A   Clear
8:53 PM 19.0 °F 8.2 °F 12.0 °F 74% 30.16 in 10.0 mi West 9.2 mph - N/A   Clear
9:53 PM 17.1 °F 5.8 °F 10.0 °F 74% 30.16 in 10.0 mi WNW 9.2 mph - N/A   Clear
10:53 PM 16.0 °F 5.3 °F 8.1 °F 71% 30.14 in 10.0 mi WNW 8.1 mph - N/A   Clear
11:53 PM 12.0 °F 0.5 °F 6.1 °F 77% 30.12 in 10.0 mi West 8.1 mph - N/A   Clear